OPTUS D3

Last updated on Sun Jun 21 2026 00:03:04 GMT+0000 (Coordinated Universal Time)

1 35756U 09044B 26170.92388350 -.00000151 00000+0 00000+0 0 9993 2 35756 0.8768 268.9127 0002959 176.0247 311.9383 1.00270138 61595
UTC large
Height (km)
Speed (km/s)
/
Latitude / Longitude
Inclination (degrees)
Orbital Period (minutes)
Azimuth
Elevation
Range (km)
Doppler Factor

Next 0 passes for location: London (51.5072 / 0.1276)

No passes found over London.
OPTUS D3